Orbital Elements at Epoch 2459000.5 (2020-May-31.0) TDB
Reference: JPL 14 (heliocentric ecliptic J2000)
Element | Value | Uncertainty (1-sigma) | Units |
e | .2331571964597316 | 6.2943e-08 | |
a | 2.163794718476489 | 8.7357e-09 | au |
q | 1.659290408202137 | 1.3291e-07 | au |
i | 3.485703168915157 | 8.6715e-06 | deg |
node | 64.29061025932145 | 0.00012516 | deg |
peri | 246.8726723463379 | 0.00012757 | deg |
M | 116.7048980125097 | 2.5924e-05 | deg |
tp | 2458623.614790652461 (2019-May-20.11479065) | 8.25e-05 | TDB |
period | 1162.579100583854 3.18 | 7.0404e-06 1.928e-08 | d yr |
n | .3096563492490154 | 1.8752e-09 | deg/d |
Q | 2.668299028750841 | 1.0773e-08 | au |
|
| | Orbit Determination Parameters
Additional Information
|